www.pogodaiklimat.ru

ПОГОДА в Клерморе, OK

  • Прогноз погоды в Клерморе
  • Монитор погоды в Клерморе
  • Климат в Клерморе

АРХИВ ПОГОДЫ в Клерморе

Время (UTC), дата Ветер
(напр.,м/с)
 
Видим.   Явления Облачность Т
(С)
Тd
(С)
f
(%)
Тe
(С)
Тes
(С)
Комфортность

P
(гПа)

Po
(гПа)
Тmin
(С)
Tmax
(С)
R
(мм)
SD
(см)
01:35 16.06 ЮВ  16 км    5/5 1170 м  +25.0  +21.0  78  +31  +31  очень
душно 
  983.2         
01:55 16.06   16 км    5/0 2100 м
[средняя] 
+25.0  +21.0  78  +31  +31  очень
душно 
  983.5         
02:15 16.06   16 км    ясно  +24.0  +21.0  83  +30  +30  очень
душно 
  983.8         
02:35 16.06 ЮВ  16 км    ясно  +23.0  +21.0  89  +31  +31  очень
душно 
  983.8         
02:55 16.06   16 км    ясно  +23.0  +21.0  89  +31  +31  очень
душно 
  983.8         
03:15 16.06   16 км    ясно  +23.0  +21.0  89  +31  +31  очень
душно 
  983.8         
03:35 16.06 ЮВ  16 км    ясно  +23.0  +21.0  89  +31  +31  очень
душно 
  983.5         
03:55 16.06 ЮВ  16 км    ясно  +23.0  +21.0  89  +31  +31  очень
душно 
  983.5         
04:15 16.06 ЮВ  16 км    ясно  +23.0  +21.0  89  +31  +31  очень
душно 
  983.5         
04:35 16.06 Ю  16 км    ясно  +24.0  +21.0  83  +30  +30  очень
душно 
  983.5         
04:55 16.06 Ю  4
{7} 
16 км    ясно  +24.0  +21.0  83  +30  +30  очень
душно 
  982.9         
05:15 16.06 Ю  16 км    ясно  +24.0  +21.0  83  +30  +30  очень
душно 
  982.2         
05:35 16.06 Ю  16 км    ясно  +24.0  +21.0  83  +30  +30  очень
душно 
  981.5         
05:55 16.06 Ю  16 км    5/5 1950 м  +24.0  +21.0  83  +30  +30  очень
душно 
  981.2         
06:15 16.06 З  6
{12} 
16 км    5/5 930 м  +25.0  +19.0  69  +30  +30  душно    981.9         
06:35 16.06 З  16 км    ясно  +23.0  +16.0  65  +27  +27  душно    981.9         
06:55 16.06 З  5
{8} 
16 км    ясно  +22.0  +16.0  69  +26  +26  душно    981.5         
07:15 16.06 ЮЗ  16 км    ясно  +22.0  +17.0  73  +26  +26  душно    983.2         
07:35 16.06   16 км    8/0 2400 м
[средняя] 
+21.0  +17.0  78  +25  +25  комфорт    984.5         
07:55 16.06 С  16 км    8/0 2700 м
[средняя] 
+21.0  +17.0  78  +25  +25  комфорт    985.2         
08:15 16.06 С  16 км  слабый дождь  8/0 3000 м
[средняя] 
+21.0  +17.0  78  +26  +26  душно    987.1         
08:35 16.06 С  11 км  дождь  10/8 570 м
[средняя] 
+20.0  +17.0  83  +23  +23  комфорт    987.8         
08:55 16.06 СВ  5 км  сильный дождь  10/10 390 м  +19.0  +17.0  88  +21  +21  комфорт    987.5         
09:15 16.06 СВ  11 км  дождь  10/8 330 м
[средняя] 
+18.0  +17.0  94  +18  +18      987.5         
09:35 16.06 В  16 км  слабый дождь  10/8 1320 м
[средняя] 
+18.0  +17.0  94  +18  +18      987.1         
09:55 16.06 В  5
{10} 
11 км  слабый дождь  8/5 1500 м
[средняя] 
+18.0  +17.0  94  +17  +17      986.5         
10:15 16.06 В  16 км  дождь  8/5 1800 м
[средняя] 
+18.0  +17.0  94  +17  +17      986.5         
10:35 16.06 СВ  13
{16} 
11 км  слабый дождь  10/5 270 м
[средняя] 
+17.0  +17.0  100  +15  +15      984.5         
10:55 16.06 В  7
{12} 
16 км    5/5 1500 м
[средняя] 
+18.0  +16.0  88  +17  +17      983.8         
11:15 16.06 В  16 км    ясно  +18.0  +16.0  88  +18  +18      984.2         
11:35 16.06 В  16 км    ясно  +19.0  +16.0  83  +21  +21  комфорт    984.5         
11:55 16.06 В  16 км    5/0 2250 м
[средняя] 
+20.0  +16.0  78  +23  +23  комфорт    985.2         
12:15 16.06   16 км    8/0 2250 м
[средняя] 
+21.0  +16.0  73  +24  +26  комфорт    985.5         
12:35 16.06 ЮЗ  16 км    10/0 2250 м
[средняя] 
+20.0  +17.0  83  +24  +24  комфорт    985.8         
12:55 16.06 ЮЗ  16 км    10/0 2250 м
[средняя] 
+21.0  +17.0  78  +26  +27  душно    985.8         
13:15 16.06 ЮЗ  16 км    10/0 2250 м
[средняя] 
+20.0  +17.0  83  +23  +25  комфорт    985.8         
13:35 16.06 Ю  16 км    10/0 2100 м
[средняя] 
+21.0  +17.0  78  +25  +27  комфорт    985.8         
13:55 16.06 Ю  16 км    8/0 2100 м
[средняя] 
+21.0  +17.0  78  +25  +27  комфорт    985.8         
14:15 16.06 Ю  16 км    8/0 2100 м
[средняя] 
+22.0  +17.0  73  +26  +30  душно    986.2         
14:35 16.06 Ю  16 км    5/0 2100 м
[средняя] 
+23.0  +18.0  73  +28  +34  душно    986.2         
14:55 16.06 Ю  16 км    ясно  +24.0  +18.0  69  +28  +35  душно    986.2         
15:15 16.06 Ю  16 км    5/0 2100 м
[средняя] 
+25.0  +18.0  65  +29  +36  душно    986.5         
15:35 16.06 Ю  16 км    10/0 2100 м
[средняя] 
+25.0  +18.0  65  +29  +32  душно    986.5         
15:55 16.06 Ю  16 км    10/10 900 м  +25.0  +18.0  65  +29  +29  душно    986.5         
16:15 16.06 Ю  16 км    8/8 900 м  +24.0  +18.0  69  +28  +31  душно    986.5         
16:35 16.06 ЮЗ  16 км    5/5 1800 м  +25.0  +18.0  65  +29  +36  душно    986.5         
16:55 16.06 Ю  16 км    10/10 810 м  +24.0  +18.0  69  +28  +28  душно    986.2         
17:15 16.06 З  16 км    10/10 870 м  +25.0  +18.0  65  +29  +29  душно    986.2         

 

Местоположение метеостанции Claremore Regional Airport: широта 36.2944 долгота -95.4797 высота над уровнем моря 221 м.

В архиве по умолчанию представлена погода в Клерморе за последние 1-2 суток. Обновление информации о фактической погоде в базе происходит ежечасно! Архивные данные за месяц целиком и за предыдущие месяцы Вы можете получить, выбрав интересующий диапазон дат из раскрывающегося списка и нажав кнопку "Ввод!".

Внимание! Архив погоды МЕТАР в базе сайта хранится не более 60 дней. Нет смысла пытаться выбрать более раннюю дату.

Внимание! Время в таблицах - всемирное. Для получения местного времени необходимо прибавить поправку, которая в Клерморе равна -6 ч.

Ветер - указаны скорость ветра в м/с и направление, откуда дует ветер: С - северный, СВ - северо-восточный, В - восточный, ЮВ - юго-восточный, Ю - южный, ЮЗ - юго-западный, З - западный, СЗ - северо-западный.
Видимость - горизонтальная дальность видимости в метрах или километрах. При видимости от 1 до 10 км при отсутствии осадков обычно наблюдается дымка, при ухудшении видимости до 1 км и менее - туман. В сухую погоду видимость может ухудшаться дымом, пылью или мглою.
Атмосферные явления - указаны явления, наблюдавшиеся в указанный момент времени.
Облачность - указаны через наклонную черту верхняя и нижняя облачность в баллах и высота нижней границы облаков в метрах. Внимание: облачность, как и прочие метеорологические величины в США измеряются автоматическими метеостанциями. Указанные значения в баллах носят условный характер и показывают процент времени, в течение которого, в среднем, лазерный луч высотомера отражался от облаков обратно.
T - Температура воздуха - температура, измеренная на высоте 2 м над землей.
Td - Температура точки росы - температура, при понижении до которой содержащийся в воздухе водяной пар достигнет насыщения.
f - Относительная влажность воздуха - влажноcть воздуха, измеренная на высоте 2 м над землей.
Te - Эффективная температура - температура, которую ощущает одетый по сезону человек в тени. Характеристика душности погоды. При расчете учитывается влияние влажности воздуха и скорости ветра на теплоощущения человека.
Tes - Эффективная температура на солнце - температура, которую ощущает человек, с поправкой на солнечный нагрев. Характеристика знойности погоды. Зависит от высоты солнца над горизонтом, облачности и скорости ветра. Ночью, в пасмурную погоду, а также при ветре 12 м/с и более поправка равна нулю.
P - Атмосферное давление - приведенное к уровню моря атмосферное давление.
Po - Атмосферное давление - измеренное на уровне метеостанции атмосферное давление.
Tmin - Минимальная температура - минимум температуры воздуха на высоте 2 м над землей.
Tmax - Максимальная температура - максимум температуры воздуха на высоте 2 м над землей.
R - Количество осадков - Количество выпавших осадков за 3 или 6 часов, мм.
SD - Снежный покров - Высота снежного покрова, см.